GW2254 Weather Reports


time (UTC)temp
C
wind
direction
speed
KPH
gust
KPH
rain 1hr
cm
rain 24hr
cm
rain mn
cm
humidity
%
barometer
mb
20260504035013 5 360 0.0 0.0 0.00 0.00 0.00 69 1017.2
20260504034511 6 360 0.0 0.0 0.00 0.00 0.00 69 1017.2
20260504034011 6 360 0.0 0.0 0.00 0.00 0.00 69 1017.1
20260504033510 6 360 0.0 0.0 0.00 0.00 0.00 68 1017.0
20260504033010 6 360 0.0 0.0 0.00 0.00 0.00 68 1017.1
20260504032510 6 360 0.0 0.0 0.00 0.00 0.00 68 1017.1
20260504032012 6 360 0.0 0.0 0.00 0.00 0.00 68 1017.1
20260504031510 6 360 0.0 0.0 0.00 0.00 0.00 67 1017.1
20260504031008 6 360 0.0 0.0 0.00 0.00 0.00 66 1017.1
20260504030508 6 360 0.0 0.0 0.00 0.00 0.00 66 1017.1
20260504030009 6 360 0.0 0.0 0.00 0.00 0.00 66 1017.0
20260504025507 6 360 0.0 0.0 0.00 0.00 0.00 65 1017.1
20260504025009 6 360 0.0 0.0 0.00 0.00 0.00 65 1017.1
20260504024505 6 360 0.0 0.0 0.00 0.00 0.00 65 1017.2
20260504024006 7 360 0.0 0.0 0.00 0.00 0.00 65 1017.1
20260504023504 7 360 0.0 0.0 0.00 0.00 0.00 65 1017.1
20260504023003 7 360 0.0 0.0 0.00 0.00 0.00 65 1017.2
20260504022504 7 360 0.0 0.0 0.00 0.00 0.00 65 1017.2
20260504022002 7 360 0.0 0.0 0.00 0.00 0.00 64 1017.2
20260504021501 7 360 0.0 0.0 0.00 0.00 0.00 64 1017.2
20260504021002 7 360 0.0 0.0 0.00 0.00 0.00 64 1017.2
20260504020501 7 360 0.0 0.0 0.00 0.00 0.00 63 1017.1
20260504020003 7 360 0.0 0.0 0.00 0.00 0.00 63 1017.1
20260504015502 8 360 0.0 0.0 0.00 0.00 0.00 62 1017.1
20260504015001 8 360 0.0 0.0 0.00 0.00 0.00 62 1017.0
20260504014608 8 360 0.0 0.0 0.00 0.00 0.00 62 1017.1
20260504014059 8 360 0.0 0.0 0.00 0.00 0.00 61 1017.1
20260504014002 8 360 0.0 0.0 0.00 0.00 0.00 61 1017.1
20260504013559 8 360 0.0 0.0 0.00 0.00 0.00 60 1017.1
20260504013109 8 360 0.0 0.0 0.00 0.00 0.00 60 1017.0
20260504012600 9 360 0.0 0.0 0.00 0.00 0.00 59 1017.0
20260504012059 9 360 0.0 0.0 0.00 0.00 0.00 58 1016.9
20260504011701 9 360 0.0 0.0 0.00 0.00 0.00 58 1016.9
20260504011058 10 360 0.0 0.0 0.00 0.00 0.00 56 1016.9
20260504010559 10 360 0.0 0.0 0.00 0.00 0.00 56 1016.8
20260504010058 10 360 0.0 0.0 0.00 0.00 0.00 55 1016.9
20260504005559 10 157 0.0 0.0 0.00 0.00 0.00 54 1016.8
20260504005102 10 360 0.0 0.0 0.00 0.00 0.00 53 1016.7
20260504004558 11 360 0.0 0.0 0.00 0.00 0.00 52 1016.7
20260504004058 11 157 0.0 0.0 0.00 0.00 0.00 52 1016.7
20260504003557 11 157 0.0 0.0 0.00 0.00 0.00 51 1016.6
20260504003103 11 157 0.0 0.0 0.00 0.00 0.00 50 1016.6
20260504002557 12 360 0.0 0.0 0.00 0.00 0.00 49 1016.5
20260504002057 12 161 0.0 0.0 0.00 0.00 0.00 48 1016.4
20260504001607 12 157 0.0 0.0 0.00 0.00 0.00 46 1016.4
20260504001056 13 157 0.0 0.0 0.00 0.00 0.00 45 1016.5
20260504000556 13 157 0.0 0.0 0.00 0.00 0.00 46 1016.4
20260504000129 13 157 0.0 0.0 0.00 0.00 0.00 46 1016.3
20260503235556 13 157 0.0 0.0 0.00 0.00 0.00 44 1016.1
20260503235056 14 157 0.0 0.0 0.00 0.00 0.00 43 1016.1
20260503234556 14 157 0.0 0.0 0.00 0.00 0.00 41 1016.1
20260503234056 14 157 0.0 0.0 0.00 0.00 0.00 40 1016.1
20260503233557 15 157 0.0 0.0 0.00 0.00 0.00 38 1016.1
20260503233055 15 157 0.0 0.0 0.00 0.00 0.00 39 1016.1
20260503232555 15 157 0.0 0.0 0.00 0.00 0.00 36 1016.0
20260503232055 15 157 0.0 0.0 0.00 0.00 0.00 36 1016.0
20260503231557 15 157 0.0 0.0 0.00 0.00 0.00 33 1016.0
20260503231055 15 157 0.0 0.0 0.00 0.00 0.00 34 1016.0
20260503230555 15 157 0.0 0.0 0.00 0.00 0.00 33 1015.9
20260503230103 15 157 0.0 1.6 0.00 0.00 0.00 33 1015.9
20260503225554 15 157 0.0 1.6 0.00 0.00 0.00 31 1015.9
20260503225054 15 157 0.0 3.2 0.00 0.00 0.00 31 1015.9
20260503224554 16 157 0.0 3.2 0.00 0.00 0.00 32 1016.0
20260503224054 16 157 0.0 1.6 0.00 0.00 0.00 32 1016.0
20260503223554 16 157 0.0 8.0 0.00 0.00 0.00 32 1016.0
20260503223054 16 157 0.0 8.0 0.00 0.00 0.00 33 1015.9
20260503222554 16 223 0.0 6.4 0.00 0.00 0.00 31 1016.1
20260503222052 16 223 0.0 3.2 0.00 0.00 0.00 30 1015.9
20260503221557 16 223 0.0 3.2 0.00 0.00 0.00 30 1016.0
20260503221052 16 223 0.0 4.8 0.00 0.00 0.00 32 1016.0
20260503220653 16 223 0.0 4.8 0.00 0.00 0.00 30 1016.0
20260503220053 16 221 0.0 6.4 0.00 0.00 0.00 31 1016.1
20260503215552 16 203 0.0 8.0 0.00 0.00 0.00 32 1016.0
20260503215052 16 180 1.6 8.0 0.00 0.00 0.00 30 1015.9
20260503214551 16 178 0.0 4.8 0.00 0.00 0.00 30 1015.8
20260503214051 16 172 1.6 11.3 0.00 0.00 0.00 30 1015.8
20260503213552 16 22 0.0 3.2 0.00 0.00 0.00 30 1015.9
20260503213051 16 25 0.0 6.4 0.00 0.00 0.00 31 1015.9
20260503212551 16 25 3.2 6.4 0.00 0.00 0.00 32 1015.8
20260503212051 16 56 1.6 6.4 0.00 0.00 0.00 28 1015.8
20260503211550 16 325 1.6 8.0 0.00 0.00 0.00 29 1015.8
20260503211050 16 360 3.2 16.1 0.00 0.00 0.00 29 1015.8
20260503210552 17 190 6.4 16.1 0.00 0.00 0.00 28 1015.8
20260503210050 17 360 1.6 4.8 0.00 0.00 0.00 29 1015.8
20260503205550 17 344 3.2 4.8 0.00 0.00 0.00 29 1015.8
20260503205050 17 252 0.0 6.4 0.00 0.00 0.00 27 1015.8
20260503204550 17 269 1.6 6.4 0.00 0.00 0.00 26 1015.8
20260503204049 18 118 1.6 6.4 0.00 0.00 0.00 27 1015.8
20260503203549 18 291 1.6 6.4 0.00 0.00 0.00 26 1015.9
20260503203051 18 225 1.6 11.3 0.00 0.00 0.00 27 1015.9
20260503202549 18 285 3.2 11.3 0.00 0.00 0.00 28 1016.0
20260503202049 18 171 1.6 6.4 0.00 0.00 0.00 26 1015.8
20260503201549 18 97 1.6 14.5 0.00 0.00 0.00 25 1016.0
20260503201048 18 281 1.6 14.5 0.00 0.00 0.00 25 1016.1
20260503200548 19 167 1.6 12.9 0.00 0.00 0.00 26 1016.1
20260503200055 19 170 1.6 12.9 0.00 0.00 0.00 27 1016.2
20260503195546 18 128 0.0 12.9 0.00 0.00 0.00 27 1016.2
20260503195047 18 185 3.2 12.9 0.00 0.00 0.00 26 1016.2
20260503194546 18 245 1.6 8.0 0.00 0.00 0.00 26 1016.4
20260503194046 18 234 0.0 8.0 0.00 0.00 0.00 26 1016.4
20260503193544 18 351 1.6 6.4 0.00 0.00 0.00 28 1016.5
20260503193048 18 287 1.6 6.4 0.00 0.00 0.00 27 1016.7
20260503192543 18 315 1.6 8.0 0.00 0.00 0.00 26 1016.6
20260503192047 18 310 1.6 8.0 0.00 0.00 0.00 26 1016.8
20260503191543 18 32 4.8 8.0 0.00 0.00 0.00 26 1016.7
20260503191043 18 246 3.2 17.7 0.00 0.00 0.00 27 1016.9
20260503190544 18 250 3.2 17.7 0.00 0.00 0.00 27 1016.8
20260503190047 18 265 3.2 11.3 0.00 0.00 0.00 26 1016.9
20260503185543 18 345 1.6 8.0 0.00 0.00 0.00 27 1016.9
20260503185042 18 334 3.2 8.0 0.00 0.00 0.00 28 1016.9
20260503184541 18 307 1.6 8.0 0.00 0.00 0.00 29 1017.1
20260503184044 18 72 1.6 8.0 0.00 0.00 0.00 30 1017.1
20260503183539 17 220 0.0 9.7 0.00 0.00 0.00 29 1017.2
20260503183053 17 305 3.2 9.7 0.00 0.00 0.00 27 1017.1
20260503182538 17 294 1.6 9.7 0.00 0.00 0.00 26 1017.1
20260503182038 17 314 1.6 16.1 0.00 0.00 0.00 28 1017.2
20260503181553 17 39 0.0 16.1 0.00 0.00 0.00 29 1017.3
20260503181038 17 294 3.2 8.0 0.00 0.00 0.00 28 1017.4
20260503180537 17 252 3.2 12.9 0.00 0.00 0.00 28 1017.3
20260503180037 17 282 3.2 11.3 0.00 0.00 0.00 31 1017.3
20260503175535 17 40 1.6 9.7 0.00 0.00 0.00 28 1017.3
20260503175035 17 15 3.2 12.9 0.00 0.00 0.00 29 1017.4
20260503174536 17 360 3.2 6.4 0.00 0.00 0.00 27 1017.4
20260503174034 17 360 3.2 6.4 0.00 0.00 0.00 31 1017.4
20260503173534 17 360 3.2 12.9 0.00 0.00 0.00 30 1017.5
20260503173034 17 188 6.4 12.9 0.00 0.00 0.00 27 1017.5
20260503172536 17 284 3.2 9.7 0.00 0.00 0.00 30 1017.6
20260503172036 17 195 1.6 8.0 0.00 0.00 0.00 30 1017.6
20260503171532 17 344 1.6 8.0 0.00 0.00 0.00 31 1017.7
20260503171032 17 360 3.2 8.0 0.00 0.00 0.00 28 1017.8
20260503170532 17 360 3.2 9.7 0.00 0.00 0.00 29 1017.8
20260503150519 15 360 3.2 12.9 0.00 0.00 0.00 31 1018.5
20260503131055 11 360 1.6 9.7 0.00 0.00 0.00 45 1017.9
20260503130558 11 57 1.6 9.7 0.00 0.00 0.00 44 1018.0
20260503110535 7 50 0.0 4.8 0.00 0.00 0.00 57 1017.1
20260503081511 8 151 0.0 9.7 0.00 0.00 0.00 64 1014.2
20260503081011 8 182 1.6 9.7 0.00 0.00 0.00 64 1014.1
20260503080510 8 42 0.0 0.0 0.00 0.00 0.00 65 1014.0
20260503072503 8 316 0.0 1.6 0.00 0.00 0.00 72 1013.7
20260503072002 8 316 0.0 0.0 0.00 0.00 0.00 74 1013.7
20260503071502 8 316 0.0 0.0 0.00 0.00 0.00 75 1013.6
20260503071001 8 316 0.0 0.0 0.00 0.00 0.00 76 1013.7
20260503070500 8 316 0.0 0.0 0.00 0.00 0.00 76 1013.5
20260503060120 7 316 0.0 0.0 0.00 0.00 0.00 77 1013.2
20260503055058 7 316 0.0 0.0 0.00 0.00 0.00 77 1013.2
20260503054600 7 316 0.0 0.0 0.00 0.00 0.00 77 1013.2
20260503054054 7 316 0.0 0.0 0.00 0.00 0.00 77 1013.2
20260503053554 7 316 0.0 0.0 0.00 0.00 0.00 77 1013.2
20260503053054 7 316 0.0 0.0 0.00 0.00 0.00 77 1013.2
20260503052553 7 316 0.0 0.0 0.00 0.00 0.00 77 1013.1
20260503052053 7 316 0.0 0.0 0.00 0.00 0.00 77 1013.1
20260503051554 7 316 0.0 0.0 0.00 0.00 0.00 77 1013.2
20260503051052 7 316 0.0 0.0 0.00 0.00 0.00 76 1013.2
20260503050551 7 316 0.0 0.0 0.00 0.00 0.00 76 1013.2
20260503050053 7 316 0.0 0.0 0.00 0.00 0.00 76 1013.2
20260503045553 7 316 0.0 0.0 0.00 0.00 0.00 76 1013.3
20260503045051 7 316 0.0 0.0 0.00 0.00 0.00 76 1013.3
20260503044550 7 316 0.0 0.0 0.00 0.00 0.00 76 1013.3
20260503044054 7 316 0.0 0.0 0.00 0.00 0.00 76 1013.3
20260503043549 7 316 0.0 0.0 0.00 0.00 0.00 76 1013.3
20260503043049 7 316 0.0 0.0 0.00 0.00 0.00 76 1013.4
20260503042548 7 316 0.0 0.0 0.00 0.00 0.00 76 1013.5
20260503042048 7 316 0.0 0.0 0.00 0.00 0.00 75 1013.4
20260503041551 7 316 0.0 0.0 0.00 0.00 0.00 75 1013.5
20260503041048 7 316 0.0 0.0 0.00 0.00 0.00 75 1013.4
20260503040546 7 316 0.0 0.0 0.00 0.00 0.00 75 1013.4
20260503040049 7 316 0.0 0.0 0.00 0.00 0.00 75 1013.4
20260503035545 7 315 0.0 0.0 0.00 0.00 0.00 75 1013.3